Time,TemperatureF,DewpointF,PressureIn,WindDirection,WindDirectionDegrees,WindSpeedMPH,WindSpeedGustMPH,Humidity,HourlyPrecipIn,Conditions,Clouds,dailyrainin,SoftwareType,DateUTC
2013-10-08 00:13:00,49.0,47.0,30.19,SE,138,0.0,0.0,94,0.00,,,0.01,,2013-10-08 05:13:00,
2013-10-08 00:22:00,49.0,47.0,30.18,SE,138,0.0,0.0,94,0.00,,,0.01,,2013-10-08 05:22:00,
2013-10-08 00:42:00,49.0,47.0,30.18,SE,138,0.0,0.0,94,0.00,,,0.01,,2013-10-08 05:42:00,
2013-10-08 00:53:00,49.0,47.0,30.18,SE,138,0.0,0.0,94,0.00,,,0.01,,2013-10-08 05:53:00,
2013-10-08 01:12:00,49.0,47.0,30.18,SE,138,0.0,0.0,94,0.00,,,0.01,,2013-10-08 06:12:00,
2013-10-08 01:22:00,49.0,47.0,30.18,SE,138,0.0,0.0,94,0.00,,,0.01,,2013-10-08 06:22:00,
2013-10-08 01:42:00,49.0,47.0,30.19,SE,138,0.0,1.0,92,0.00,,,0.01,,2013-10-08 06:42:00,
2013-10-08 01:52:00,48.0,46.0,30.19,SE,138,0.0,0.0,93,0.00,,,0.01,,2013-10-08 06:52:00,
2013-10-08 02:11:00,48.0,46.0,30.19,SE,138,0.0,0.0,93,0.00,,,0.01,,2013-10-08 07:11:00,
2013-10-08 02:21:00,47.0,45.0,30.19,SE,138,0.0,0.0,93,0.00,,,0.01,,2013-10-08 07:21:00,
2013-10-08 02:42:00,47.0,45.0,30.19,SE,138,0.0,1.0,94,0.00,,,0.01,,2013-10-08 07:42:00,
2013-10-08 02:52:00,48.0,46.0,30.19,SE,138,0.0,0.0,94,0.00,,,0.01,,2013-10-08 07:52:00,
2013-10-08 03:12:00,48.0,46.0,30.19,SE,138,0.0,0.0,94,0.00,,,0.01,,2013-10-08 08:12:00,
2013-10-08 03:22:00,48.0,46.0,30.19,SE,138,0.0,0.0,94,0.00,,,0.01,,2013-10-08 08:22:00,
2013-10-08 03:42:00,47.0,45.0,30.19,SE,138,0.0,0.0,93,0.00,,,0.01,,2013-10-08 08:42:00,
2013-10-08 03:52:00,47.0,45.0,30.19,SE,138,0.0,0.0,94,0.00,,,0.01,,2013-10-08 08:52:00,
2013-10-08 04:12:00,47.0,45.0,30.19,NE,53,0.0,2.0,94,0.00,,,0.01,,2013-10-08 09:12:00,
2013-10-08 04:22:00,47.0,45.0,30.20,NE,53,0.0,0.0,94,0.00,,,0.01,,2013-10-08 09:22:00,
2013-10-08 04:43:00,48.0,46.0,30.20,NE,53,0.0,1.0,94,0.00,,,0.01,,2013-10-08 09:43:00,
2013-10-08 04:53:00,47.0,45.0,30.20,NE,53,0.0,1.0,93,0.00,,,0.01,,2013-10-08 09:53:00,
2013-10-08 05:12:00,47.0,45.0,30.20,NE,53,0.0,1.0,94,0.00,,,0.01,,2013-10-08 10:12:00,
2013-10-08 05:23:00,47.0,45.0,30.20,NE,53,0.0,0.0,94,0.00,,,0.01,,2013-10-08 10:23:00,
2013-10-08 05:42:00,47.0,45.0,30.21,NE,53,0.0,0.0,94,0.00,,,0.01,,2013-10-08 10:42:00,
2013-10-08 05:53:00,47.0,45.0,30.21,NE,53,0.0,0.0,94,0.00,,,0.01,,2013-10-08 10:53:00,
2013-10-08 06:12:00,47.0,45.0,30.21,NE,53,0.0,1.0,94,0.00,,,0.01,,2013-10-08 11:12:00,
2013-10-08 06:22:00,47.0,45.0,30.21,NE,53,0.0,1.0,94,0.00,,,0.01,,2013-10-08 11:22:00,
2013-10-08 06:42:00,47.0,45.0,30.22,NE,53,0.0,1.0,93,0.00,,,0.01,,2013-10-08 11:42:00,
2013-10-08 06:52:00,47.0,45.0,30.22,NE,53,0.0,1.0,93,0.01,,,0.02,,2013-10-08 11:52:00,
2013-10-08 07:12:00,47.0,45.0,30.23,NE,55,0.0,1.0,93,0.01,,,0.02,,2013-10-08 12:12:00,
2013-10-08 07:22:00,47.0,45.0,30.23,NE,55,0.0,0.0,93,0.01,,,0.02,,2013-10-08 12:22:00,
2013-10-08 07:42:00,47.0,45.0,30.23,ENE,65,0.0,2.0,94,0.01,,,0.01,,2013-10-08 12:42:00,
2013-10-08 07:52:00,48.0,46.0,30.24,ENE,65,0.0,2.0,93,0.00,,,0.01,,2013-10-08 12:52:00,
2013-10-08 08:12:00,49.0,47.0,30.24,ENE,68,1.0,2.0,92,0.00,,,0.01,,2013-10-08 13:12:00,
2013-10-08 08:22:00,51.0,48.0,30.24,ENE,60,0.0,3.0,91,0.00,,,0.01,,2013-10-08 13:22:00,
2013-10-08 08:42:00,52.0,49.0,30.25,ENE,78,1.0,5.0,89,0.00,,,0.01,,2013-10-08 13:42:00,
2013-10-08 08:52:00,53.0,49.0,30.25,ENE,76,2.0,6.0,85,0.00,,,0.01,,2013-10-08 13:52:00,
2013-10-08 09:11:00,54.0,49.0,30.25,East,95,3.0,6.0,84,0.00,,,0.01,,2013-10-08 14:11:00,
2013-10-08 09:22:00,55.0,49.0,30.25,East,86,3.0,7.0,81,0.00,,,0.01,,2013-10-08 14:22:00,
2013-10-08 09:42:00,56.0,50.0,30.25,East,81,2.0,10.0,81,0.00,,,0.01,,2013-10-08 14:42:00,
2013-10-08 09:52:00,58.0,51.0,30.25,NE,53,3.0,7.0,78,0.00,,,0.01,,2013-10-08 14:52:00,
2013-10-08 10:11:00,59.0,51.0,30.25,East,82,5.0,10.0,74,0.00,,,0.01,,2013-10-08 15:11:00,
2013-10-08 10:22:00,60.0,51.0,30.25,ENE,63,5.0,13.0,73,0.00,,,0.01,,2013-10-08 15:22:00,
2013-10-08 10:44:00,61.0,51.0,30.25,NE,52,3.0,11.0,70,0.00,,,0.01,,2013-10-08 15:44:00,
2013-10-08 10:53:00,62.0,51.0,30.25,ENE,73,4.0,9.0,66,0.00,,,0.01,,2013-10-08 15:53:00,
2013-10-08 11:13:00,63.0,51.0,30.24,ENE,62,4.0,10.0,65,0.00,,,0.01,,2013-10-08 16:13:00,
2013-10-08 11:23:00,64.0,50.0,30.24,East,80,4.0,9.0,60,0.00,,,0.01,,2013-10-08 16:23:00,
2013-10-08 11:42:00,64.0,49.0,30.24,ENE,64,6.0,11.0,59,0.00,,,0.01,,2013-10-08 16:42:00,
2013-10-08 11:53:00,64.0,47.0,30.24,East,88,6.0,15.0,54,0.00,,,0.01,,2013-10-08 16:53:00,
2013-10-08 12:12:00,65.0,48.0,30.24,ENE,67,5.0,11.0,55,0.00,,,0.01,,2013-10-08 17:12:00,
2013-10-08 12:23:00,65.0,47.0,30.24,ENE,65,5.0,14.0,53,0.00,,,0.01,,2013-10-08 17:23:00,
2013-10-08 12:42:00,66.0,48.0,30.23,East,99,3.0,11.0,52,0.00,,,0.01,,2013-10-08 17:42:00,
2013-10-08 12:52:00,66.0,48.0,30.22,ENE,57,3.0,15.0,53,0.00,,,0.01,,2013-10-08 17:52:00,
2013-10-08 13:11:00,67.0,47.0,30.21,East,93,6.0,14.0,48,0.00,,,0.01,,2013-10-08 18:11:00,
2013-10-08 13:22:00,68.0,46.0,30.21,East,87,6.0,13.0,46,0.00,,,0.01,,2013-10-08 18:22:00,
2013-10-08 13:42:00,68.0,46.0,30.20,East,79,5.0,11.0,46,0.00,,,0.01,,2013-10-08 18:42:00,
2013-10-08 13:53:00,68.0,46.0,30.19,ENE,57,3.0,12.0,46,0.00,,,0.01,,2013-10-08 18:53:00,
2013-10-08 14:11:00,68.0,46.0,30.19,ENE,58,5.0,13.0,45,0.00,,,0.01,,2013-10-08 19:11:00,
2013-10-08 14:22:00,69.0,46.0,30.19,ENE,57,6.0,12.0,44,0.00,,,0.01,,2013-10-08 19:22:00,
2013-10-08 14:42:00,69.0,46.0,30.18,SE,137,6.0,15.0,43,0.00,,,0.01,,2013-10-08 19:42:00,
2013-10-08 14:52:00,69.0,46.0,30.17,East,84,7.0,13.0,43,0.00,,,0.01,,2013-10-08 19:52:00,
2013-10-08 15:12:00,70.0,48.0,30.17,SSE,160,2.0,9.0,46,0.00,,,0.01,,2013-10-08 20:12:00,
2013-10-08 15:22:00,69.0,46.0,30.17,ENE,57,5.0,10.0,44,0.00,,,0.01,,2013-10-08 20:22:00,
2013-10-08 15:42:00,70.0,47.0,30.16,ENE,74,3.0,11.0,44,0.00,,,0.01,,2013-10-08 20:42:00,
2013-10-08 15:52:00,70.0,46.0,30.16,East,84,7.0,11.0,43,0.00,,,0.01,,2013-10-08 20:52:00,
2013-10-08 16:12:00,70.0,46.0,30.16,SE,144,4.0,9.0,43,0.00,,,0.01,,2013-10-08 21:12:00,
2013-10-08 16:22:00,70.0,46.0,30.16,SE,144,4.0,9.0,43,0.00,,,0.01,,2013-10-08 21:22:00,
2013-10-08 16:44:00,70.0,47.0,30.15,East,92,3.0,8.0,44,0.00,,,0.01,,2013-10-08 21:44:00,
2013-10-08 16:54:00,70.0,48.0,30.15,East,99,5.0,10.0,45,0.00,,,0.01,,2013-10-08 21:54:00,
2013-10-08 17:13:00,69.0,47.0,30.16,East,91,4.0,8.0,46,0.00,,,0.01,,2013-10-08 22:13:00,
2013-10-08 17:24:00,69.0,48.0,30.15,ENE,61,2.0,9.0,47,0.00,,,0.01,,2013-10-08 22:24:00,
2013-10-08 17:46:00,69.0,49.0,30.15,ENE,57,1.0,5.0,49,0.00,,,0.01,,2013-10-08 22:46:00,
2013-10-08 17:58:00,68.0,48.0,30.15,East,84,1.0,5.0,48,0.00,,,0.01,,2013-10-08 22:58:00,
2013-10-08 18:12:00,68.0,50.0,30.15,ENE,71,0.0,3.0,52,0.00,,,0.01,,2013-10-08 23:12:00,
2013-10-08 18:23:00,67.0,50.0,30.16,East,90,0.0,2.0,54,0.00,,,0.01,,2013-10-08 23:23:00,
2013-10-08 18:42:00,66.0,51.0,30.16,East,90,0.0,0.0,58,0.00,,,0.01,,2013-10-08 23:42:00,
2013-10-08 18:52:00,64.0,52.0,30.16,East,92,0.0,1.0,64,0.00,,,0.01,,2013-10-08 23:52:00,
2013-10-08 19:12:00,61.0,51.0,30.16,East,92,0.0,1.0,69,0.00,,,0.01,,2013-10-09 00:12:00,
2013-10-08 19:22:00,60.0,51.0,30.17,East,92,0.0,1.0,72,0.00,,,0.01,,2013-10-09 00:22:00,
2013-10-08 19:43:00,59.0,51.0,30.17,East,92,0.0,0.0,74,0.00,,,0.01,,2013-10-09 00:43:00,
2013-10-08 19:52:00,58.0,50.0,30.17,East,92,0.0,0.0,76,0.00,,,0.01,,2013-10-09 00:52:00,
2013-10-08 20:12:00,57.0,50.0,30.17,East,92,0.0,0.0,78,0.00,,,0.01,,2013-10-09 01:12:00,
2013-10-08 20:22:00,56.0,50.0,30.18,East,92,0.0,0.0,79,0.00,,,0.01,,2013-10-09 01:22:00,
2013-10-08 20:43:00,56.0,50.0,30.18,East,92,0.0,0.0,81,0.00,,,0.01,,2013-10-09 01:43:00,
2013-10-08 20:52:00,55.0,50.0,30.18,East,92,0.0,0.0,83,0.00,,,0.01,,2013-10-09 01:52:00,
2013-10-08 21:12:00,54.0,49.0,30.18,East,92,0.0,0.0,84,0.00,,,0.01,,2013-10-09 02:12:00,
2013-10-08 21:23:00,53.0,49.0,30.19,East,92,0.0,0.0,85,0.00,,,0.01,,2013-10-09 02:23:00,
2013-10-08 21:42:00,53.0,49.0,30.18,East,92,0.0,0.0,87,0.00,,,0.01,,2013-10-09 02:42:00,
2013-10-08 21:52:00,53.0,49.0,30.18,East,92,0.0,1.0,87,0.00,,,0.01,,2013-10-09 02:52:00,
2013-10-08 22:11:00,52.0,48.0,30.18,East,92,0.0,0.0,86,0.00,,,0.01,,2013-10-09 03:11:00,
2013-10-08 22:23:00,52.0,48.0,30.18,East,92,0.0,0.0,87,0.00,,,0.01,,2013-10-09 03:23:00,
2013-10-08 22:44:00,52.0,48.0,30.18,East,92,0.0,0.0,87,0.00,,,0.01,,2013-10-09 03:44:00,
2013-10-08 22:54:00,52.0,48.0,30.18,East,92,0.0,0.0,86,0.00,,,0.01,,2013-10-09 03:54:00,
2013-10-08 23:14:00,53.0,48.0,30.18,East,92,0.0,0.0,84,0.00,,,0.01,,2013-10-09 04:14:00,
2013-10-08 23:24:00,52.0,48.0,30.18,East,92,0.0,0.0,85,0.00,,,0.01,,2013-10-09 04:24:00,
2013-10-08 23:44:00,52.0,48.0,30.18,East,92,0.0,0.0,86,0.00,,,0.01,,2013-10-09 04:44:00,
2013-10-08 23:54:00,51.0,48.0,30.17,East,92,0.0,0.0,88,0.00,,,0.01,,2013-10-09 04:54:00,